CW4745 Weather Reports


Display with metric or nautical units.
time (UTC)temp
F
wind
direction
speed
MPH
gust
MPH
rain 1hr
in
rain 24hr
in
rain mn
in
humidity
%
barometer
mb
20210917162042 66 269 7.0 11.0 0.00 0.00 0.00 69 1014.5
20210917161030 66 251 5.0 9.0 0.00 0.00 0.00 69 1014.6
20210917160041 66 288 5.0 11.0 0.00 0.00 0.00 68 1014.5
20210917155028 66 309 5.0 10.0 0.00 0.00 0.00 68 1014.5
20210917154040 66 299 6.0 12.0 0.00 0.00 0.00 67 1014.5
20210917153027 67 292 6.0 12.0 0.00 0.00 0.00 67 1014.5
20210917152030 67 262 7.0 12.0 0.00 0.00 0.00 65 1014.5
20210917151026 67 286 6.0 11.0 0.00 0.00 0.00 66 1014.6
20210917150039 67 265 6.0 12.0 0.00 0.00 0.00 66 1014.5
20210917145026 67 274 5.0 10.0 0.00 0.00 0.00 65 1014.5
20210917144026 67 320 5.0 10.0 0.00 0.00 0.00 65 1014.5
20210917143024 68 274 6.0 11.0 0.00 0.00 0.00 65 1014.6
20210917142027 68 312 5.0 13.0 0.00 0.00 0.00 63 1014.7
20210917141024 68 243 8.0 12.0 0.00 0.00 0.00 64 1014.8
20210917140038 69 290 7.0 12.0 0.00 0.00 0.00 63 1014.8
20210917135025 70 240 8.0 13.0 0.00 0.00 0.00 62 1014.8
20210917134025 69 261 5.0 13.0 0.00 0.00 0.00 63 1014.9
20210917133024 70 307 7.0 11.0 0.00 0.00 0.00 64 1014.9
20210917132024 69 302 5.0 13.0 0.00 0.00 0.00 66 1014.8
20210917131024 69 264 6.0 14.0 0.00 0.00 0.00 65 1014.9
20210917130036 69 278 7.0 16.0 0.00 0.00 0.00 64 1014.9
20210917125028 70 292 9.0 14.0 0.00 0.00 0.00 64 1014.9
20210917124022 70 334 9.0 14.0 0.00 0.00 0.00 63 1014.9
20210917123023 71 292 6.0 16.0 0.00 0.00 0.00 64 1014.9
20210917122019 70 219 6.0 14.0 0.00 0.00 0.00 64 1014.9
20210917121022 71 259 7.0 14.0 0.00 0.00 0.00 64 1014.9
20210917120021 70 266 8.0 15.0 0.00 0.00 0.00 67 1014.9
20210917115020 69 261 8.0 13.0 0.00 0.00 0.00 68 1014.8
20210917114017 69 258 7.0 13.0 0.00 0.00 0.00 68 1014.9
20210917113017 68 252 6.0 13.0 0.00 0.00 0.00 71 1014.9
20210917112019 68 272 6.0 12.0 0.00 0.00 0.00 70 1014.8
20210917111016 68 262 8.0 12.0 0.00 0.00 0.00 71 1014.8
20210917110016 68 238 8.0 13.0 0.00 0.00 0.00 71 1014.8
20210917105016 68 243 9.0 13.0 0.00 0.00 0.00 71 1014.7
20210917104016 69 266 7.0 14.0 0.00 0.00 0.00 70 1014.8
20210917103015 69 241 6.0 11.0 0.00 0.00 0.00 71 1014.7
20210917102022 69 190 4.0 10.0 0.00 0.00 0.00 71 1014.8
20210917101016 68 254 4.0 10.0 0.00 0.00 0.00 72 1014.8
20210917100016 68 234 5.0 9.0 0.00 0.00 0.00 72 1014.8
20210917095015 68 220 2.0 10.0 0.00 0.00 0.00 71 1014.9
20210917094014 69 274 4.0 9.0 0.00 0.00 0.00 70 1014.7
20210917093015 69 189 4.0 9.0 0.00 0.00 0.00 70 1014.8
20210917092024 69 189 3.0 5.0 0.00 0.00 0.00 72 1014.8
20210917091015 68 217 3.0 9.0 0.00 0.00 0.00 74 1014.7
20210917090013 67 221 1.0 5.0 0.00 0.00 0.00 76 1014.8
20210917085023 66 212 2.0 5.0 0.00 0.00 0.00 77 1014.8
20210917084014 65 190 3.0 6.0 0.00 0.00 0.00 78 1014.8
20210917083014 64 127 4.0 9.0 0.00 0.00 0.00 80 1014.8
20210917082013 63 134 3.0 6.0 0.00 0.00 0.00 81 1014.8
20210917081014 63 142 4.0 5.0 0.00 0.00 0.00 81 1014.8
20210917080015 62 162 2.0 6.0 0.00 0.00 0.00 81 1014.8
20210917075013 62 145 4.0 6.0 0.00 0.00 0.00 82 1014.7
20210917074014 62 148 3.0 6.0 0.00 0.00 0.00 83 1014.7
20210917073014 61 133 4.0 5.0 0.00 0.00 0.00 83 1014.7
20210917072015 61 155 3.0 5.0 0.00 0.00 0.00 83 1014.7
20210917071012 60 145 1.0 5.0 0.00 0.00 0.00 84 1014.7
20210917070013 60 142 2.0 6.0 0.00 0.00 0.00 84 1014.8
20210917065013 60 120 2.0 5.0 0.00 0.00 0.00 84 1014.7
20210917064014 60 154 3.0 5.0 0.00 0.00 0.00 84 1014.7
20210917063013 59 133 1.0 3.0 0.00 0.00 0.00 84 1014.7
20210917062011 59 142 1.0 3.0 0.00 0.00 0.00 84 1014.7
20210917061011 59 151 2.0 3.0 0.00 0.00 0.00 84 1014.8
20210917060014 59 133 1.0 2.0 0.00 0.00 0.00 84 1014.8
20210917055010 59 133 1.0 3.0 0.00 0.00 0.00 84 1014.7
20210917054012 59 142 2.0 4.0 0.00 0.00 0.00 84 1014.6
20210917053013 59 147 2.0 4.0 0.00 0.00 0.00 84 1014.7
20210917052010 59 138 2.0 3.0 0.00 0.00 0.00 84 1014.6
20210917051010 59 144 2.0 3.0 0.00 0.00 0.00 84 1014.8
20210917050015 59 145 2.0 4.0 0.00 0.00 0.00 84 1014.7
20210917045012 59 147 2.0 3.0 0.00 0.00 0.00 84 1014.7
20210917044012 59 149 2.0 3.0 0.00 0.00 0.00 84 1014.7
20210917043015 58 149 2.0 3.0 0.00 0.00 0.00 84 1014.8
20210917042024 58 147 2.0 3.0 0.00 0.00 0.00 84 1014.7
20210917041010 58 135 2.0 3.0 0.00 0.00 0.00 84 1014.8
20210917040013 58 149 2.0 4.0 0.00 0.00 0.00 84 1014.8
20210917035024 58 158 2.0 3.0 0.00 0.00 0.00 84 1014.8
20210917034012 58 147 2.0 3.0 0.00 0.00 0.00 84 1014.9
20210917033014 58 140 2.0 3.0 0.00 0.00 0.00 84 1014.9
20210917032011 58 137 2.0 4.0 0.00 0.00 0.00 84 1015.1
20210917031012 58 148 0.0 0.0 0.00 0.00 0.00 84 1015.1
20210917030014 58 148 0.0 1.0 0.00 0.00 0.00 84 1015.1
20210917025011 58 148 1.0 3.0 0.00 0.00 0.00 84 1015.3
20210917024009 58 144 2.0 3.0 0.00 0.00 0.00 84 1015.2
20210917023010 58 149 2.0 3.0 0.00 0.00 0.00 84 1015.3
20210917022009 58 199 1.0 3.0 0.00 0.00 0.00 84 1015.5
20210917021020 58 200 0.0 4.0 0.00 0.00 0.00 84 1015.5
20210917020007 58 206 0.0 4.0 0.00 0.00 0.00 84 1015.7
20210917015014 57 192 2.0 4.0 0.00 0.00 0.00 84 1015.8
20210917014002 57 186 3.0 4.0 0.00 0.00 0.00 83 1015.8
20210917013004 57 183 2.0 3.0 0.00 0.00 0.00 83 1015.9
20210917012004 56 169 2.0 3.0 0.00 0.00 0.00 83 1015.9
20210917011001 56 169 1.0 2.0 0.00 0.00 0.00 83 1016.1
20210917010001 56 169 1.0 3.0 0.00 0.00 0.00 83 1016.1
20210917005001 56 234 1.0 2.0 0.00 0.00 0.00 83 1016.2
20210917004000 56 234 1.0 2.0 0.00 0.00 0.00 83 1016.4
20210917003000 56 234 0.0 1.0 0.00 0.00 0.00 83 1016.4
20210917001959 56 234 0.0 1.0 0.00 0.00 0.00 83 1016.5
20210917001001 56 234 0.0 0.0 0.00 0.00 0.00 83 1016.6
20210917000000 56 234 0.0 2.0 0.00 0.00 0.00 83 1016.6
20210916235000 55 234 0.0 2.0 0.00 0.01 0.00 83 1016.7
20210916234001 55 234 0.0 2.0 0.00 0.01 0.00 83 1016.8
20210916233000 55 234 0.0 2.0 0.00 0.01 0.00 82 1016.8
20210916232000 55 234 0.0 1.0 0.00 0.01 0.00 82 1016.8
20210916230959 55 234 0.0 2.0 0.00 0.01 0.00 82 1016.8
20210916230000 55 234 1.0 2.0 0.00 0.01 0.00 82 1016.9
20210916224959 55 234 1.0 2.0 0.00 0.01 0.00 81 1016.9
20210916224001 55 234 0.0 0.0 0.00 0.01 0.00 81 1016.8
20210916222958 55 234 0.0 0.0 0.00 0.01 0.00 81 1016.8
20210916221954 56 234 0.0 1.0 0.00 0.01 0.00 81 1016.6
20210916220957 56 234 0.0 0.0 0.00 0.01 0.00 81 1016.6
20210916215956 56 234 0.0 2.0 0.00 0.01 0.01 82 1016.6
20210916214953 56 234 2.0 3.0 0.00 0.01 0.01 81 1016.6
20210916213955 56 247 1.0 2.0 0.00 0.01 0.01 81 1016.5
20210916212952 57 247 1.0 2.0 0.00 0.01 0.01 81 1016.5
20210916211954 57 247 2.0 3.0 0.00 0.01 0.01 81 1016.4
20210916210952 57 247 0.0 0.0 0.00 0.01 0.01 80 1016.4
20210916205952 57 247 0.0 2.0 0.00 0.01 0.01 80 1016.5
20210916204951 57 251 1.0 2.0 0.00 0.01 0.01 80 1016.5
20210916203950 57 251 0.0 1.0 0.00 0.01 0.01 79 1016.5
20210916202954 58 251 0.0 2.0 0.00 0.01 0.01 79 1016.6
20210916201951 58 251 1.0 2.0 0.00 0.01 0.01 79 1016.6
20210916200951 58 251 0.0 2.0 0.00 0.01 0.01 79 1016.5
20210916195950 59 251 1.0 2.0 0.00 0.01 0.01 78 1016.5
20210916194950 59 251 0.0 2.0 0.00 0.01 0.01 78 1016.6
20210916193949 59 251 1.0 3.0 0.00 0.01 0.01 79 1016.5
20210916192950 59 258 2.0 3.0 0.00 0.01 0.01 78 1016.5
20210916191950 60 279 2.0 3.0 0.00 0.01 0.01 78 1016.5
20210916190949 60 278 2.0 2.0 0.00 0.01 0.01 78 1016.4
20210916185949 60 282 1.0 3.0 0.00 0.01 0.01 77 1016.3
20210916184948 60 289 2.0 3.0 0.00 0.01 0.01 77 1016.2
20210916183949 61 269 2.0 4.0 0.00 0.01 0.01 77 1016.1
20210916182953 61 288 1.0 4.0 0.00 0.01 0.01 76 1016.1
20210916181952 61 281 3.0 4.0 0.00 0.01 0.01 76 1016.1
20210916180948 62 279 3.0 5.0 0.00 0.01 0.01 76 1016.2
20210916175947 62 282 2.0 4.0 0.00 0.01 0.01 75 1016.1
20210916175000 63 283 2.0 5.0 0.00 0.01 0.01 75 1016.0
20210916173948 63 288 2.0 5.0 0.00 0.01 0.01 74 1015.9
20210916172947 64 286 4.0 6.0 0.00 0.01 0.01 74 1015.9
20210916171947 64 281 3.0 7.0 0.00 0.01 0.01 74 1015.9
20210916170947 64 303 2.0 6.0 0.00 0.01 0.01 74 1016.0
20210916165946 64 278 4.0 7.0 0.00 0.01 0.01 73 1015.9
20210916164949 65 298 5.0 7.0 0.00 0.01 0.01 73 1015.9
20210916163946 65 348 6.0 7.0 0.00 0.01 0.01 73 1015.9
20210916162945 65 276 5.0 10.0 0.00 0.01 0.01 72 1016.0